Regional Weather Roundup
Issued by NWS Wakefield, VA

Home | Current Version | Previous Version | Graphics & Text | Print | Product List | Glossary On
Versions: 1 2 3 4 5 6 7 8 9 10 11 12 13 14 15 16 17 18 19 20 21 22 23 24 25 26 27 28 29 30 31 32 33 34 35 36 37 38 39 40 41 42 43 44 45 46 47 48 49 50
961
ASUS41 KAKQ 190815
RWRAKQ

REGIONAL WEATHER ROUNDUP
NATIONAL WEATHER SERVICE WAKEFIELD VA
300 AM EST MON FEB 19 2018

Note: "fair" indicates few or no clouds below 12,000 feet with no
significant weather and/or obstructions to visibility. * = Denotes
station may not report precipitation (e.g., rain,snow,etc.),
thunder or fog.

VAZ042-051-052>054-056-190900-
NORTHERN VIRGINIA

CITY           SKY/WX    TMP DP  RH WIND       PRES   REMARKS
WASH NATIONAL  CLOUDY    41  35  79 S10       30.50S
DULLES         CLOUDY    39  34  82 S7        30.47F
FORT BELVOIR   CLOUDY    39  35  85 SE5       30.49S
QUANTICO       CLOUDY    40  36  86 S7        30.50F
FREDERICKSBRG* FAIR      38  35  86 S3        30.48F
STAFFORD*      FAIR      37  36  96 CALM      30.52F
WARRENTON      CLOUDY    40  31  69 CALM      30.47S
CULPEPER*      CLOUDY    39  33  77 CALM      30.48S
MANASSAS*      CLOUDY    38  34  85 S5        30.49S
LEESBURG*      CLOUDY    39  34  81 S8        30.47S
WINCHESTER     FAIR      39  30  70 S9G18     30.41S
FRONT ROYAL*   FAIR      41  32  70 SW5       30.39S
LURAY*         FAIR      41  36  81 SW8       30.39F
$$

VAZ048-049-060>072-079>083-190900-
CENTRAL AND SOUTH CENTRAL VIRGINIA

CITY           SKY/WX    TMP DP  RH WIND       PRES   REMARKS
RICHMOND       MOCLDY    36  33  89 SE3       30.47F
CHESTERFIELD*  FAIR      38  34  85 S5        30.48F
PETERSBURG*    FAIR      30  30 100 CALM      30.49F
HANOVER        FAIR      38  33  82 CALM      30.48F
TAPPAHANNOCK*  FAIR      35  35  99 MISG      30.49F
QUINTON*       FAIR      31  31 100 S6        30.48F
CHARLOTTSVILLE CLOUDY    42  35  76 S6        30.44F
GORDONSVILLE*  CLOUDY    39  35  85 CALM      30.45F
ORANGE*        CLOUDY    37  32  81 CALM      30.46S
LOUISA*        CLOUDY    38  33  82 CALM      30.50F
BUMPASS*       FAIR      35  33  94 CALM      30.47F
FARMVILLE*     CLOUDY    42  42 100 CALM      30.44F
CREWE*         CLOUDY    39  39 100 SE6       30.44F
FORT PICKETT*  PTSUNNY   37  37 100 SE6       30.45F
CHASE CITY*    PTSUNNY   40  37  86 SE7       30.43F
CLARKSVILLE*   CLOUDY    41  34  75 SE7       30.44F
SOUTH HILL*    CLOUDY    37  37  98 CALM      30.52S
LAWRENCEVILLE* FAIR      37  35  89 CALM      30.46F
EMPORIA*       MOCLDY    34  34 100 CALM      30.49F
$$

VAZ088>098-190900-
SOUTHEAST VIRGINIA

CITY           SKY/WX    TMP DP  RH WIND       PRES   REMARKS
NORFOLK        FAIR      41  37  86 CALM      30.49S
VIRGINIA BEACH MOCLDY    38  33  82 E3        30.49S
NORFOLK NAVAL  MOCLDY    38  34  85 E3        30.50F
WEST POINT*    FAIR      36  35  96 E3        30.50F
SALUDA*        FAIR      38  38 100 CALM      30.50F
NEWPORT NEWS   FOG       33  32  96 E5        30.48F VSB 3/4
LANGLEY AFB    FAIR      37  36  95 E7        30.49F
FORT EUSTIS    MOCLDY    38  35  90 SE3       30.46F
WILLIAMSBURG*  FAIR      39  36  87 CALM      30.49F
HR EXEC AP*    FAIR      28  26  92 CALM      30.49F
FRANKLIN*      MOCLDY    35  33  94 CALM      30.49F
US460-WAKEFLD  FAIR      35  34  96 CALM      30.48F
$$

VAZ020-022-025-037-045-190900-
WEST CENTRAL AND SOUTHWEST VIRGINIA

CITY           SKY/WX    TMP DP  RH WIND       PRES   REMARKS
STAUNTON*      FAIR      41  35  77 S12       30.40F
WAYNESBORO*    CLOUDY    41  36  83 SE5       30.39F
HOT SPRINGS VA SNOW      36  36 100 S10       30.32F VSB<1/4
LYNCHBURG      CLOUDY    41  36  82 E3        30.43F
DANVILLE       CLOUDY    44  39  82 E3        30.42F
SOUTH BOSTON*  CLOUDY    43  34  70 SE5       30.43F
MARTINSVILLE   CLOUDY    42  37  83 N3        30.43S
ROANOKE        LGT RAIN  43  38  82 SE6       30.42F
BLACKSBURG     LGT RAIN  42  38  84 E6        30.39F
DUBLIN*        LGT RAIN  40  34  81 CALM      30.37F
MARION*        LGT RAIN  46   4  17 NE7       30.34F
HILLSVILLE*    CLOUDY    44  33  65 S7        30.33F
RICHLANDS*     CLOUDY    48  29  48 SE8       30.25S
WISE*          CLOUDY    50  45  81 S12G18    30.27R
ABINGDON*      RAIN      51  42  70 CALM      30.30R
$$

MDZ021>025-VAZ099-100-190900-
SOUTHERN MARYLAND AND THE DELMARVA PENINSULA

CITY           SKY/WX    TMP DP  RH WIND       PRES   REMARKS
PATUXENT RIVER FAIR      39  36  89 SE8       30.49F
BAY BRIDGE APT FAIR      37  32  81 SE8       30.49F
LEONARDTOWN    FAIR      37  34  87 SE6       30.49F
DOVER          MOCLDY    37  31  82 SE6       30.51S
GEORGETOWN     FAIR      34  30  85 S3        30.52F
EASTON         FAIR      37  32  81 S5        30.53F
CAMBRIDGE      CLEAR     34  32  93 SE8       30.50F
SALISBURY      FAIR      30  29  96 CALM      30.52S
OCEAN CITY     FAIR      40  37  89 VRB3      30.53F
WALLOPS ISLAND FAIR      40  37  89 SE6       30.53S
ACCOMACK*      FAIR      38  36  92 SE3       30.51F
$$

NCZ012>017-030>032-190900-
NORTH CENTRAL AND EASTERN NORTH CAROLINA

CITY           SKY/WX    TMP DP  RH WIND       PRES   REMARKS
ROANOKE RAPIDS CLOUDY    39  37  93 CALM      30.46F
RALEIGH        LGT RAIN  43  37  79 E8        30.45R FOG
ELIZABETH CITY CLOUDY    44  40  85 E6        30.48F
AHOSKIE*       CLOUDY    40  37  89 CALM      30.47F
EDENTON*       CLOUDY    46  41  82 E5        30.48F
CURRITUCK*     FAIR      43  38  81 E6        30.49F
KILL DEVIL HLS MOCLDY    44  44  99 E5        30.46F
MANTEO         MOCLDY    46  40  82 E10       30.48F
CAPE HATTERAS  CLOUDY    49  45  86 NE8       30.44F
TARBORO*       NOT AVBL
GOLDSBORO      CLOUDY    46  37  71 NE8       30.40F
WASHINGTON     CLOUDY    44  38  77 E7        30.45F
GREENVILLE     MOCLDY    45  36  70 E7        30.44F
NEW BERN       CLOUDY    47  40  76 E10       30.44F
WILMINGTON     CLOUDY    50  44  80 E9        30.39F
$$

VAZ048-190900-
ELSEWHERE

CITY           SKY/WX    TMP DP  RH WIND       PRES   REMARKS
HARRISBURG PA  MOCLDY    36  28  73 E8        30.44F
BALTIMORE      CLOUDY    35  34  96 CALM      30.48F
ANNAPOLIS      FAIR      41  37  86 SE12      30.48F
ANDREWS AFB    MOCLDY    37  32  84 S5        30.47S
PHILADELPHIA   MOCLDY    35  27  72 SE6       30.52S
HENDERSON NC   CLOUDY    40  30  69 SE5       30.44F
GREENSBORO     LGT RAIN  48  44  86 SE8       30.38F
ROCKY MOUNT    CLOUDY    44  36  73 VRB3      30.45F
$$

VAZ100-190900-
MARINE

STATION/POSITION TIME  TEMP    WIND        PRES    WAVE   SWELL
                       AIR SEA DIR/SP/G            HT/PER HT/PER
                 (UTC) (F)     (DEG/KT/KT) (MB)    (FT/S) (FT/S)
BRANDYWINE LGT   0742   41     170/ 12/ 13 1033.9S
CAPE MAY NJ      0748   40 41  140/  6/  8 1033.2F
LEWES DE         0742   40 43  160/  5/  7 1033.4F
15NM E FENWICK I 0750   44 42  120/ 10/ 14 1033.9F   1/ 7   2/ 7
OCEAN-CITY-INLET 0748   41 41  180/  4/  6 1034.1F
WACHAPREAGUE VA  0748   40 46  110/  2/  3 1033.3F
THOMAS POINT MD  0800   39 38     CALM       N/A
GOOSES REEF MD   0800   40 38  160/ 12/ 14 1032.6    1/ 3
COVE POINT MD    0748   39     170/ 13/ 14 1032.9F
SOLOMONS ISLAND  0748   40 40  140/  8/  9 1032.1F
BISHOPS HEAD MD  0748   41 43  130/ 10/ 12 1033.2F
POTOMAC MD       0800   40 40  320/ 10/ 12 1031.9    1/ 2
CAMBRIDGE MD     0748   37 44              1033.6F
LEWISETTA VA     0748   41 43  160/  8/  9 1032.4F
RAPPAHANNOCK LGT 0748          100/  5/  5 1033.5F
STINGRAY PT      0800   40 42  130/  6/  8 1032.6    0
YORK RVR RNG VA  0748   42     120/  8/  9 1033.3F
YORKTOWN VA      0748   42 45  140/  4/  5 1032.2F
DOMINION TERM VA 0748   44     100/  3/  7 1032.8F
KIPTOPEKE VA     0742      43  100/  3/  4   N/A
CAPE HENRY VA    0748   43      90/  7/  9   N/A
S CRANEY ISL VA  0748   42     110/  4/  6 1032.5F
CAPE HENRY BUOY  0800      43                N/A     2/ 4
1ST LANDING BUOY 0800   43 43  120/  8/ 10 1032.7    1
CAPE CHARLES BUO 0751      43                N/A     2/11
64NM E OF VA BCH 0750   48 49   70/ 14/ 16 1032.7F   3/ 8   2/ 8
DUCK PIER NC     0748   45 45   70/ 11/ 12 1031.6F
44100 DUCK FRF   0745      44                N/A     3/ 5
44056 DUCK FRF   0800      44                N/A     3/ 5
OREGON INLET NC  0742   45 48   40/ 10/ 11 1031.5F
HATTERAS NC      0742   50 56   60/ 10/ 15 1030.5F
DIAMOND SHLS NC  0800   63 72  110/ 12/ 16 1030.5
CAPE LOOKOUT NC  0800           40/ 19/ 20 1030.2F
$$




USA.gov is the U.S. government's official web portal to all federal, state and local government web resources and services.